Location: Bonneuil
(46.1010°N, 2.9693°E)
Time: 11:25:03
(UTC+00:00)

Cosmos 1570 Rocket - Pass Details

Date: 09 April 2020
Orbit: 764 x 787 km, 74.1° (Epoch: 05 June)

Event Time Altitude Azimuth Distance (km) Brightness Sun altitude
Rises 20:45:58 0° 340° (NNW) 3,291 8.3 -22.2°
Reaches altitude 10° 20:48:24 10° 344° (NNW) 2,356 7.3 -22.5°
Maximum altitude 20:53:43 62° 65° (ENE) 880 4.1 -23.2°
Enters shadow 20:54:26 56° 102° (ESE) 926 4.0 -23.3°
